Location: Gazon
(48.1318°N, 1.2708°W)
Time: 23:20:17
(UTC+00:00)

Cosmos 1833 Rocket - Pass Details

Date: 18 September 2020
Orbit: 831 x 841 km, 71.0° (Epoch: 25 October)

Event Time Altitude Azimuth Distance (km) Brightness Sun altitude
Rises 21:42:28 0° 331° (NNW) 3,407 6.9 -32.3°
Reaches altitude 10° 21:44:55 10° 330° (NNW) 2,469 5.9 -32.5°
Enters shadow 21:49:08 51° 318° (NW) 1,054 3.4 -33.0°
